TimeEST,TemperatureF,Dew PointF,Humidity,Sea Level PressureIn,VisibilityMPH,Wind Direction,Wind SpeedMPH,Gust SpeedMPH,PrecipitationIn,Events,Conditions,WindDirDegrees,DateUTC
12:15 AM,16.7,6.8,65,30.03,10.0,SSE,4.6,-,N/A,,Mostly Cloudy,160,2013-02-18 05:15:00
12:35 AM,16.3,7.0,67,30.03,10.0,SSE,8.1,-,N/A,,Scattered Clouds,160,2013-02-18 05:35:00
12:54 AM,16.3,7.2,67,30.03,10.0,SSE,5.8,-,N/A,,Mostly Cloudy,150,2013-02-18 05:54:00
1:15 AM,17.6,7.7,65,30.03,10.0,SSE,8.1,-,N/A,,Overcast,160,2013-02-18 06:15:00
1:35 AM,18.1,8.1,65,30.02,10.0,SSE,6.9,-,N/A,,Overcast,160,2013-02-18 06:35:00
1:54 AM,18.9,8.6,64,30.02,10.0,South,8.1,-,N/A,,Overcast,170,2013-02-18 06:54:00
2:15 AM,18.9,8.6,64,30.02,10.0,South,8.1,-,N/A,,Overcast,180,2013-02-18 07:15:00
2:35 AM,18.9,8.2,63,30.01,10.0,SSE,10.4,-,N/A,,Overcast,160,2013-02-18 07:35:00
2:54 AM,18.9,8.2,63,30.01,10.0,South,6.9,-,N/A,,Overcast,170,2013-02-18 07:54:00
3:15 AM,18.9,7.9,62,30.00,10.0,SSE,9.2,-,N/A,,Overcast,160,2013-02-18 08:15:00
3:35 AM,18.9,7.7,62,29.99,10.0,SSE,10.4,16.1,N/A,,Overcast,150,2013-02-18 08:35:00
3:54 AM,18.9,7.7,62,29.98,10.0,SE,6.9,-,N/A,,Mostly Cloudy,140,2013-02-18 08:54:00
4:15 AM,18.9,8.4,64,29.98,10.0,SE,6.9,-,N/A,,Mostly Cloudy,130,2013-02-18 09:15:00
4:35 AM,18.9,9.0,65,29.97,10.0,SE,8.1,-,N/A,,Overcast,140,2013-02-18 09:35:00
4:55 AM,18.7,9.1,66,29.97,10.0,SE,6.9,-,N/A,,Overcast,140,2013-02-18 09:55:00
5:15 AM,18.5,9.3,67,29.96,10.0,SE,5.8,-,N/A,,Overcast,140,2013-02-18 10:15:00
5:34 AM,18.9,9.5,67,29.94,10.0,SE,9.2,-,N/A,,Overcast,130,2013-02-18 10:34:00
5:55 AM,18.9,9.3,66,29.92,10.0,SE,11.5,-,N/A,,Overcast,130,2013-02-18 10:55:00
6:15 AM,18.9,9.5,67,29.90,10.0,SE,11.5,-,N/A,,Overcast,130,2013-02-18 11:15:00
6:34 AM,18.9,9.5,67,29.89,10.0,SE,11.5,-,N/A,,Overcast,140,2013-02-18 11:34:00
6:55 AM,18.9,9.7,67,29.87,10.0,SE,10.4,18.4,N/A,,Overcast,140,2013-02-18 11:55:00
7:15 AM,18.9,10.0,69,29.85,10.0,SE,12.7,-,N/A,,Overcast,130,2013-02-18 12:15:00
7:34 AM,18.9,10.0,69,29.86,10.0,SE,10.4,16.1,N/A,,Overcast,140,2013-02-18 12:34:00
7:55 AM,18.9,9.7,67,29.84,10.0,SE,10.4,-,N/A,,Overcast,130,2013-02-18 12:55:00
8:15 AM,19.6,10.2,67,29.84,10.0,SSE,9.2,16.1,N/A,,Scattered Clouds,150,2013-02-18 13:15:00
8:34 AM,21.2,11.3,66,29.83,10.0,SE,15.0,-,N/A,,Clear,140,2013-02-18 13:34:00
9:15 AM,21.4,11.1,65,29.81,10.0,SE,13.8,-,N/A,,Clear,140,2013-02-18 14:15:00
9:34 AM,22.6,11.5,62,29.80,10.0,SSE,13.8,19.6,N/A,,Clear,150,2013-02-18 14:34:00
9:55 AM,23.9,12.7,62,29.79,10.0,SE,12.7,18.4,N/A,,Clear,140,2013-02-18 14:55:00
10:15 AM,23.9,12.2,61,29.78,10.0,SE,9.2,20.7,N/A,,Clear,140,2013-02-18 15:15:00
10:34 AM,25.3,13.1,60,29.78,10.0,SSE,11.5,-,N/A,,Clear,150,2013-02-18 15:34:00
10:55 AM,27.3,14.4,58,29.77,10.0,SE,10.4,17.3,N/A,,Clear,140,2013-02-18 15:55:00
11:15 AM,28.9,15.6,58,29.76,10.0,SSE,12.7,18.4,N/A,,Clear,150,2013-02-18 16:15:00
11:34 AM,31.5,17.2,56,29.75,10.0,SSE,11.5,19.6,N/A,,Clear,160,2013-02-18 16:34:00
11:55 AM,31.5,16.9,55,29.74,10.0,SE,11.5,19.6,N/A,,Clear,140,2013-02-18 16:55:00
12:15 PM,32.2,17.6,55,29.73,10.0,SSE,15.0,-,N/A,,Clear,160,2013-02-18 17:15:00
12:34 PM,33.8,18.9,54,29.72,10.0,South,16.1,20.7,N/A,,Clear,170,2013-02-18 17:34:00
12:55 PM,34.0,18.9,54,29.71,10.0,SSE,12.7,20.7,N/A,,Clear,160,2013-02-18 17:55:00
1:15 PM,36.1,21.0,54,29.70,10.0,SSE,16.1,20.7,N/A,,Clear,160,2013-02-18 18:15:00
1:34 PM,36.1,21.0,54,29.69,10.0,South,12.7,20.7,N/A,,Clear,170,2013-02-18 18:34:00
1:55 PM,36.1,20.3,53,29.67,10.0,SSE,16.1,-,N/A,,Clear,150,2013-02-18 18:55:00
2:15 PM,37.4,22.1,54,29.66,10.0,SSE,13.8,17.3,N/A,,Clear,150,2013-02-18 19:15:00
2:35 PM,38.7,23.0,53,29.65,10.0,SSE,13.8,20.7,N/A,,Clear,160,2013-02-18 19:35:00
2:55 PM,38.7,23.4,54,29.64,10.0,SSE,13.8,18.4,N/A,,Clear,160,2013-02-18 19:55:00
3:14 PM,38.7,23.7,55,29.64,10.0,South,15.0,-,N/A,,Clear,180,2013-02-18 20:14:00
3:35 PM,38.7,23.4,54,29.64,10.0,SSE,11.5,19.6,N/A,,Clear,160,2013-02-18 20:35:00
3:55 PM,38.7,24.1,56,29.63,10.0,South,17.3,-,N/A,,Clear,170,2013-02-18 20:55:00
4:14 PM,38.7,24.1,56,29.62,10.0,SSE,13.8,17.3,N/A,,Clear,150,2013-02-18 21:14:00
4:35 PM,38.7,24.4,57,29.62,10.0,SSE,11.5,-,N/A,,Scattered Clouds,150,2013-02-18 21:35:00
4:55 PM,38.7,25.0,58,29.61,10.0,SSE,11.5,-,N/A,,Mostly Cloudy,150,2013-02-18 21:55:00
5:14 PM,38.7,25.5,59,29.60,10.0,SE,8.1,-,N/A,,Overcast,140,2013-02-18 22:14:00
5:35 PM,38.7,26.4,61,29.60,10.0,SSE,9.2,-,N/A,,Overcast,150,2013-02-18 22:35:00
5:55 PM,38.5,26.6,62,29.60,10.0,SSE,10.4,18.4,N/A,,Overcast,160,2013-02-18 22:55:00
6:14 PM,36.1,25.0,64,29.59,10.0,SE,10.4,16.1,N/A,,Overcast,140,2013-02-18 23:14:00
6:35 PM,36.1,25.2,64,29.58,10.0,SE,11.5,16.1,N/A,,Overcast,130,2013-02-18 23:35:00
6:55 PM,36.1,25.5,65,29.58,10.0,SE,11.5,-,N/A,,Overcast,130,2013-02-18 23:55:00
7:14 PM,36.1,25.7,66,29.57,10.0,SE,10.4,-,N/A,,Overcast,130,2013-02-19 00:14:00
7:35 PM,36.1,26.2,67,29.56,10.0,SE,10.4,17.3,N/A,,Overcast,140,2013-02-19 00:35:00
7:55 PM,36.1,27.3,70,29.55,10.0,SE,10.4,-,N/A,,Overcast,140,2013-02-19 00:55:00
8:14 PM,36.1,31.8,84,29.54,2.0,SE,11.5,-,N/A,Rain,Light Rain,140,2013-02-19 01:14:00
8:35 PM,36.1,32.9,88,29.52,1.5,SE,10.4,18.4,N/A,Rain,Light Rain,130,2013-02-19 01:35:00
8:54 PM,36.1,33.1,89,29.50,4.0,SE,10.4,-,N/A,,Drizzle,140,2013-02-19 01:54:00
9:15 PM,36.1,33.1,89,29.49,5.0,SE,10.4,-,N/A,,Drizzle,140,2013-02-19 02:15:00
9:35 PM,36.1,33.1,89,29.48,2.0,SE,9.2,-,N/A,Rain,Light Rain,140,2013-02-19 02:35:00
9:54 PM,37.4,34.7,90,29.47,4.0,SSE,9.2,-,N/A,,Drizzle,160,2013-02-19 02:54:00
10:15 PM,38.7,36.0,90,29.46,3.0,SE,8.1,17.3,N/A,Rain,Light Rain,130,2013-02-19 03:15:00
10:35 PM,38.7,36.0,90,29.45,3.0,SSE,12.7,-,N/A,,Drizzle,160,2013-02-19 03:35:00
10:54 PM,38.7,36.0,90,29.43,4.0,SSE,10.4,-,N/A,Rain,Light Rain,150,2013-02-19 03:54:00
11:15 PM,38.7,36.0,90,29.41,4.0,SSE,11.5,16.1,N/A,Rain,Rain,160,2013-02-19 04:15:00
11:35 PM,41.2,38.3,89,29.39,10.0,South,13.8,23.0,N/A,Rain,Light Rain,170,2013-02-19 04:35:00
11:54 PM,41.2,37.8,88,29.38,7.0,South,17.3,25.3,N/A,,Drizzle,170,2013-02-19 04:54:00